Weather History for Brookings, SD

Change the Weather History Date:

Wednesday, February 6, 2013

  Actual Average Record
Temperature  
Mean Temperature 26 °F -  
Max Temperature 37 °F 26 °F 48 °F (2002)
Min Temperature 15 °F 9 °F -7 °F (2003)
Degree Days  
Heating Degree Days 39    
Moisture  
Dew Point 26 °F    
Average Humidity 88    
Maximum Humidity 100    
Minimum Humidity 75    
Precipitation  
Precipitation 0.00 in - - ()
Sea Level Pressure  
Sea Level Pressure 29.89 in    
Wind  
Wind Speed 9 mph (South)    
Max Wind Speed 21 mph    
Max Gust Speed 28 mph    
Visibility 8 miles    
Events      
Averages and records for this station are not official NWS values.
T = Trace of Precipitation, MM = Missing Value Source: NWS Daily Summary

Daily Weather History Graph

Daily Weather History Graph

Search for Another Location

Airport:

Trip Planner

Search our weather history database for the weather conditions in past years. The results will help you decide how hot, cold, wet, or windy it might be!

Date:

Astronomy

Feb. 06, 2013 Rise Set
Actual Time 7:38 AM CST 5:44 PM CST
Civil Twilight 7:08 AM CST 6:14 PM CST
Nautical Twilight 6:34 AM CST 6:49 PM CST
Astronomical Twilight 6:00 AM CST 7:23 PM CST
Moon 4:28 AM CST (2/6) 1:59 PM CST (2/6)
Length of Visible Light 11h 06m
Length of Day
10h 05m
Waning Crescent, 17% of the Moon is Illuminated
Feb 6
Waning Crescent
Feb 10
New
Feb 17
First Quarter
Feb 25
Full
Mar 4
Last Quarter

Hourly Weather History & Observations

Time (CST) Temp. Windchill Dew Point Humidity Pressure Visibility Wind Dir Wind Speed Gust Speed Precip Events Conditions
12:15 AM 17.6 °F 8.2 °F 17.6 °F 100% 30.01 in 5.0 mi East 6.9 mph - N/A   Clear
12:35 AM 17.6 °F 10.7 °F 15.8 °F 93% 30.00 in 5.0 mi East 4.6 mph - N/A   Clear
12:55 AM 15.8 °F 8.6 °F 15.8 °F 100% 30.00 in 5.0 mi East 4.6 mph - N/A   Clear
1:15 AM 15.8 °F 10.2 °F 15.8 °F 100% 30.00 in 5.0 mi East 3.5 mph - N/A   Clear
1:35 AM 15.8 °F 10.2 °F 10.4 °F 79% 29.99 in 5.0 mi East 3.5 mph - N/A   Scattered Clouds
1:55 AM 17.6 °F 12.3 °F 15.8 °F 93% 29.99 in 6.0 mi ESE 3.5 mph - N/A   Overcast
2:15 AM 17.6 °F 12.3 °F 15.8 °F 93% 29.99 in 7.0 mi ESE 3.5 mph - N/A   Overcast
2:35 AM 17.6 °F 8.2 °F 15.8 °F 93% 29.99 in 7.0 mi ESE 6.9 mph - N/A   Overcast
2:55 AM 19.4 °F 9.5 °F 17.6 °F 93% 29.99 in 7.0 mi ESE 8.1 mph - N/A   Overcast
3:15 AM 21.2 °F 12.6 °F 21.2 °F 100% 29.99 in 6.0 mi ESE 6.9 mph - N/A   Overcast
3:35 AM 21.2 °F 11.7 °F 19.4 °F 93% 29.98 in 6.0 mi SE 8.1 mph - N/A   Overcast
3:55 AM 21.2 °F 11.7 °F 21.2 °F 100% 29.97 in 7.0 mi ESE 8.1 mph - N/A   Overcast
4:15 AM 21.2 °F 10.1 °F 21.2 °F 100% 29.95 in 7.0 mi ESE 10.4 mph - N/A   Overcast
4:35 AM 23.0 °F 12.4 °F 21.2 °F 93% 29.95 in 8.0 mi ESE 10.4 mph - N/A   Overcast
4:55 AM 24.8 °F 14.0 °F 21.2 °F 86% 29.95 in 8.0 mi ESE 11.5 mph - N/A   Overcast
5:15 AM 24.8 °F 14.6 °F 23.0 °F 93% 29.95 in 9.0 mi ESE 10.4 mph - N/A   Overcast
5:35 AM 24.8 °F 13.4 °F 23.0 °F 93% 29.94 in 10.0 mi ESE 12.7 mph - N/A   Overcast
6:15 AM 24.8 °F 12.4 °F 23.0 °F 93% 29.91 in 10.0 mi ESE 15.0 mph 20.7 mph N/A   Overcast
6:35 AM 26.6 °F 12.7 °F 23.0 °F 86% 29.89 in 10.0 mi SE 20.7 mph 24.2 mph N/A   Overcast
6:55 AM 26.6 °F 13.1 °F 24.8 °F 93% 29.88 in 10.0 mi SE 19.6 mph - N/A   Overcast
7:15 AM 26.6 °F 13.4 °F 23.0 °F 86% 29.87 in 10.0 mi SE 18.4 mph - N/A   Mostly Cloudy
7:35 AM 26.6 °F 14.3 °F 23.0 °F 86% 29.87 in 9.0 mi SSE 16.1 mph - N/A   Overcast
7:55 AM 26.6 °F 14.7 °F 24.8 °F 93% 29.86 in 7.0 mi SSE 15.0 mph - N/A   Overcast
8:15 AM 26.6 °F 13.8 °F 24.8 °F 93% 29.86 in 8.0 mi SSE 17.3 mph 24.2 mph N/A   Overcast
8:35 AM 28.4 °F 15.1 °F 24.8 °F 86% 29.85 in 8.0 mi SSE 20.7 mph 27.6 mph N/A   Mostly Cloudy
8:55 AM 28.4 °F 17.0 °F 24.8 °F 86% 29.85 in 8.0 mi South 15.0 mph 24.2 mph N/A   Partly Cloudy
9:15 AM 28.4 °F 17.0 °F 24.8 °F 86% 29.86 in 8.0 mi South 15.0 mph 23.0 mph N/A   Clear
9:35 AM 28.4 °F 15.8 °F 26.6 °F 93% 29.85 in 8.0 mi South 18.4 mph - N/A   Clear
9:55 AM 30.2 °F 18.5 °F 26.6 °F 86% 29.85 in 8.0 mi South 17.3 mph 23.0 mph N/A   Clear
10:15 AM 30.2 °F 18.5 °F 26.6 °F 86% 29.84 in 8.0 mi South 17.3 mph - N/A   Clear
10:35 AM 30.2 °F 20.2 °F 26.6 °F 86% 29.83 in 8.0 mi South 12.7 mph 20.7 mph N/A   Clear
10:55 AM 30.2 °F 19.8 °F 26.6 °F 86% 29.84 in 9.0 mi South 13.8 mph - N/A   Clear
11:15 AM 33.8 °F 25.3 °F 28.4 °F 81% 29.83 in 10.0 mi South 11.5 mph - N/A   Clear
11:35 AM 33.8 °F 23.5 °F 28.4 °F 81% 29.83 in 10.0 mi South 16.1 mph - N/A   Clear
11:55 AM 35.6 °F 27.1 °F 30.2 °F 81% 29.82 in 10.0 mi South 12.7 mph 19.6 mph N/A   Clear
12:15 PM 35.6 °F 26.6 °F 30.2 °F 81% 29.82 in 10.0 mi South 13.8 mph 19.6 mph N/A   Clear
12:35 PM 35.6 °F 26.6 °F 30.2 °F 81% 29.82 in 10.0 mi SSW 13.8 mph 17.3 mph N/A   Clear
12:55 PM 35.6 °F 27.5 °F 30.2 °F 81% 29.82 in 10.0 mi SSW 11.5 mph - N/A   Clear
1:15 PM 37.4 °F 31.4 °F 30.2 °F 75% 29.82 in 10.0 mi SW 8.1 mph - N/A   Clear
1:35 PM 37.4 °F 31.4 °F 30.2 °F 75% 29.82 in 10.0 mi SSW 8.1 mph - N/A   Clear
1:55 PM 37.4 °F 30.8 °F 30.2 °F 75% 29.81 in 10.0 mi SSW 9.2 mph - N/A   Clear
2:15 PM 37.4 °F 30.8 °F 30.2 °F 75% 29.80 in 10.0 mi SSW 9.2 mph - N/A   Clear
2:35 PM 37.4 °F 31.4 °F 30.2 °F 75% 29.80 in 10.0 mi SSW 8.1 mph - N/A   Clear
2:55 PM 37.4 °F 30.8 °F 30.2 °F 75% 29.80 in 10.0 mi SSW 9.2 mph - N/A   Clear
3:15 PM 37.4 °F 31.4 °F 32.0 °F 81% 29.80 in 10.0 mi South 8.1 mph - N/A   Clear
3:35 PM 37.4 °F 32.8 °F 32.0 °F 81% 29.81 in 10.0 mi SSW 5.8 mph - N/A   Clear
3:55 PM 37.4 °F 34.9 °F 32.0 °F 81% 29.82 in 10.0 mi SW 3.5 mph - N/A   Clear
4:15 PM 37.4 °F 34.9 °F 32.0 °F 81% 29.82 in 10.0 mi SW 3.5 mph - N/A   Clear
4:35 PM 37.4 °F 34.9 °F 32.0 °F 81% 29.82 in 10.0 mi SSW 3.5 mph - N/A   Clear
4:55 PM 37.4 °F 32.1 °F 32.0 °F 81% 29.82 in 10.0 mi SSW 6.9 mph - N/A   Clear
5:15 PM 37.4 °F 32.8 °F 33.8 °F 87% 29.82 in 10.0 mi SSW 5.8 mph - N/A   Clear
5:35 PM 35.6 °F 31.7 °F 32.0 °F 87% 29.84 in 10.0 mi West 4.6 mph - N/A   Clear
5:55 PM 35.6 °F 31.7 °F 30.2 °F 81% 29.85 in 10.0 mi WNW 4.6 mph - N/A   Clear
6:15 PM 35.6 °F 32.8 °F 32.0 °F 87% 29.86 in 10.0 mi WNW 3.5 mph - N/A   Clear
6:35 PM 35.6 °F 31.7 °F 32.0 °F 87% 29.86 in 10.0 mi WNW 4.6 mph - N/A   Clear
6:55 PM 33.8 °F 29.6 °F 32.0 °F 93% 29.87 in 10.0 mi NW 4.6 mph - N/A   Clear
7:15 PM 33.8 °F 27.7 °F 32.0 °F 93% 29.87 in 10.0 mi WNW 6.9 mph - N/A   Clear
7:35 PM 33.8 °F 29.6 °F 30.2 °F 87% 29.88 in 10.0 mi WNW 4.6 mph - N/A   Clear
7:55 PM 33.8 °F 29.6 °F 30.2 °F 87% 29.89 in 10.0 mi WNW 4.6 mph - N/A   Clear
8:15 PM 33.8 °F 30.8 °F 30.2 °F 87% 29.89 in 10.0 mi NW 3.5 mph - N/A   Clear
8:35 PM 33.8 °F 27.7 °F 30.2 °F 87% 29.90 in 10.0 mi NW 6.9 mph - N/A   Mostly Cloudy
8:55 PM 32.0 °F 24.8 °F 30.2 °F 93% 29.91 in 10.0 mi NW 8.1 mph - N/A   Mostly Cloudy
9:15 PM 30.2 °F 21.9 °F 28.4 °F 93% 29.91 in 10.0 mi NNW 9.2 mph - N/A   Mostly Cloudy
9:35 PM 30.2 °F 21.9 °F 28.4 °F 93% 29.92 in 10.0 mi NNW 9.2 mph - N/A   Mostly Cloudy
9:55 PM 30.2 °F 22.6 °F 28.4 °F 93% 29.93 in 10.0 mi NNW 8.1 mph - N/A   Scattered Clouds
10:15 PM 30.2 °F 22.6 °F 28.4 °F 93% 29.94 in 8.0 mi North 8.1 mph - N/A   Mostly Cloudy
10:35 PM 30.2 °F 20.2 °F 26.6 °F 86% 29.94 in 7.0 mi NNW 12.7 mph - N/A   Overcast
10:55 PM 28.4 °F 18.0 °F 26.6 °F 93% 29.94 in 5.0 mi North 12.7 mph - N/A   Mostly Cloudy
11:15 PM 26.6 °F 15.2 °F 24.8 °F 93% 29.95 in 1.8 mi NNW 13.8 mph - N/A   Overcast
11:35 PM 26.6 °F 15.2 °F 24.8 °F 93% 29.96 in 2.0 mi North 13.8 mph - N/A   Overcast
11:55 PM 26.6 °F 19.1 °F 26.6 °F 100% 29.97 in 1.5 mi NNE 6.9 mph - N/A   Overcast